Sign In / Sign Up
 
 
Wind Of Changes Regatta. Leg 3. 13/04 - 19/04



Race Date (UTC) # I place II place III place Track
Race1982 2015-04-14 20:59:18 8 ESP202382 GoneSailing Morgawr II
Race1981 2015-04-14 20:58:26 8 miracle Tanner Baraonda ITA 1004
Race1980 2015-04-14 20:57:36 8 MJ rosco tp27
Race1979 2015-04-14 20:56:54 8 Ge 614 .../)... Alea
Race1978 2015-04-14 20:56:27 8 pesadilla JB PISKAREV GALOPIN SB3324RUS
Race1977 2015-04-14 20:55:35 8 Nik truc AquA
Race1976 2015-04-14 20:54:20 8 Юльчик Pufy RUS_663
Race1975 2015-04-14 20:53:18 8 ALICE Morgawr II Tigerloo34
Race1974 2015-04-14 20:52:13 7 lievtstrunz runny funny Hawk 125
Race1973 2015-04-14 20:51:14 8 Ge 614 Los Nietos tp27
Race1972 2015-04-14 20:50:17 8 ScansTe PISKAREV GALOPIN SB3324RUS Italia 108629
Race1971 2015-04-14 20:49:21 8 HotTuna! Nik mistermagoo
Race1970 2015-04-14 20:48:23 8 BRABO relax Юльчик
Race1969 2015-04-14 20:47:50 8 truc Caronasca Tigerloo34
Race1968 2015-04-14 20:46:41 8 pesadilla Marzamaroto GiTanic
Race1967 2015-04-14 20:45:19 8 n.a.f.t.a. runny funny Baraonda ITA 1004
Race1966 2015-04-14 20:44:56 8 ITA 77 morgana paul
Race1965 2015-04-14 20:43:49 8 Ge 614 GoneSailing reginetta
Race1964 2015-04-14 20:43:13 8 mistermagoo Team IDE ITA 1848
Race1963 2015-04-14 20:42:42 8 Lintel Dutch Rudder BRABO
Race1962 2015-04-14 20:41:24 8 Caronasca Юльчик Scurry
Race1961 2015-04-14 20:40:34 8 ALICE truc caneco
Race1960 2015-04-14 20:39:37 8 ScansTe Los Nietos rosco
Race1959 2015-04-14 20:38:55 8 alwayscount morgana Isabo
Race1958 2015-04-14 20:37:53 8 Ge 614 sicily2015 ITA 85 TS
Race1957 2015-04-14 20:37:08 8 mistermagoo Team IDE ITA 1848
Race1956 2015-04-14 20:36:40 8 baguettau Dutch Rudder FUE 69
Race1955 2015-04-14 20:35:43 8 Blackmagic Olisa tempesta boat
Race1954 2015-04-14 20:35:11 8 Fortuna III caneco Caronasca
Race1953 2015-04-14 20:33:48 8 ScansTe star6546 relax
Race1952 2015-04-14 20:32:53 8 Nik GiTanic BlowByU
Race1951 2015-04-14 20:32:19 8 Ge 614 GypsyBaron ITA 77
Race1950 2015-04-14 20:31:24 8 Barnacle mistermagoo rosco
Race1949 2015-04-14 20:30:41 8 truc ITA 24 Lintel
Race1948 2015-04-14 20:29:31 8 suiius II GoneSailing FUE 69
Race1947 2015-04-14 20:28:27 8 caneco Caronasca tempesta boat
Race1946 2015-04-14 20:27:47 8 star6546 ALICE n.a.f.t.a.
Race1945 2015-04-14 20:26:51 8 pesadilla Nik BlowByU
Race1944 2015-04-14 20:26:11 8 GypsyBaron Ge 614 ITA 77
Race1943 2015-04-14 20:25:11 8 mistermagoo alwayscount jac10
Race1942 2015-04-14 20:24:26 8 Wind Tanner Barnacle
Race1941 2015-04-14 20:23:28 8 ScansTe snappy rosco
Race1940 2015-04-14 20:22:36 8 suiius II mal du jackstar96
Race1939 2015-04-14 20:21:32 8 ALICE star6546 BubbaGump
Race1938 2015-04-14 20:20:58 8 salvamosca SR Lintel pesadilla
Race1937 2015-04-14 20:20:13 8 Ge 614 ITA 77 sandi
Race1936 2015-04-14 20:18:48 8 Alea mistermagoo TRICK
Race1935 2015-04-14 20:18:07 8 alwayscount BlowByU Barnacle
Race1934 2015-04-14 20:16:37 8 suiius II snappy corsicanbastardu
Race1933 2015-04-14 20:15:47 8 merda Nik ALICE
Race1932 2015-04-14 20:14:53 8 tp27 star6546 SkipperKold
Race1931 2015-04-14 20:14:22 8 Ge 614 Dolce&Maccarra Lintel
Race1930 2015-04-14 20:12:43 8 GoneSailing mogafenec sandi
Race1929 2015-04-14 20:12:22 8 .../)... Tigerloo34 ITA 3676
Race1928 2015-04-14 20:11:41 8 pikatchou Barnacle SAIL ON
Race1927 2015-04-14 20:10:59 8 ScansTe Kiwi Magic МИХА
Race1926 2015-04-14 20:10:07 8 truc corsicanbastardu PONTEDEUME
Race1925 2015-04-14 20:08:40 8 SkipperKold yanndelespace Brah
Race1924 2015-04-14 20:07:41 8 Ge 614 Lintel paul
Race1923 2015-04-14 20:06:54 8 GoneSailing Nik emanuele
Race1922 2015-04-14 20:06:16 8 .../)... merda Tigerloo34
Race1921 2015-04-14 20:05:48 8 SAIL ON TRICK Bernd das Boot
Race1920 2015-04-14 20:05:01 8 Feten Zia alwayscount ScansTe
Race1919 2015-04-14 20:03:59 8 truc relax Barnacle
Race1918 2015-04-14 20:03:10 8 SkipperKold ego-evgeny Friuli
Race1917 2015-04-14 20:02:01 8 МИХА Lintel Carlito
Race1916 2015-04-14 20:00:47 8 sarawak8 .../)... ITA 3676
Race1915 2015-04-14 20:00:18 8 suiius II GoneSailing merda
Race1914 2015-04-14 19:59:42 8 poppopop ze caralho SAIL ON
Race1913 2015-04-14 19:59:13 8 pesadilla rosco ScansTe
Race1912 2015-04-14 19:58:33 8 Nik Feten Zia Nano
Race1911 2015-04-14 19:57:38 8 relax Barnacle SkipperKold
Race1910 2015-04-14 19:56:57 8 truc Friuli МИХА
Race1909 2015-04-14 19:55:10 8 scirocco TUReraykucuk Valle
Race1908 2015-04-14 19:54:34 8 suiius II merda federico
Race1907 2015-04-14 19:54:02 8 GoneSailing SAIL ON Lintel
Race1906 2015-04-14 19:53:09 8 ScansTe TRICK poppopop
Race1905 2015-04-14 19:52:54 8 Nik caneco pesadilla
Race1904 2015-04-14 19:51:48 8 SkipperKold Feten Zia rosco
Race1903 2015-04-14 19:50:44 8 HELLO KITTY Bingo Chipao
Race1902 2015-04-14 19:49:32 8 scirocco truc anto-cola
Race1901 2015-04-14 19:48:21 8 fringuello mannaro relax Friuli
Race1900 2015-04-14 19:47:24 8 ScansTe Ar PempO SAIL ON
Race1899 2015-04-14 19:46:05 8 Feten Zia Nik TRICK
Race1898 2015-04-14 19:45:39 8 veleno DIEMSailing suiius II
Race1897 2015-04-14 19:44:49 8 HELLO KITTY yanndelespace Barnacle
Race1896 2015-04-14 19:44:12 8 twotwo n.a.f.t.a. rosco
Race1895 2015-04-14 19:43:21 8 relax federico scirocco
Race1894 2015-04-14 19:42:00 8 Friuli Blackmagic Promienisty
Race1893 2015-04-14 19:41:22 8 truc МИХА ScansTe
Race1892 2015-04-14 19:40:05 8 VmG alberinik pikatchou
Race1891 2015-04-14 19:39:44 8 Bite Me ITA 1848 Feten Zia
Race1890 2015-04-14 19:39:01 8 xaviercalvarez Valle Tur193819
Race1889 2015-04-14 19:38:33 8 PISKAREV GALOPIN SB3324RUS Barnacle HELLO KITTY
Race1888 2015-04-14 19:38:02 8 kdtmaster rosco merda
Race1887 2015-04-14 19:37:18 8 federico veleno Norman
Race1886 2015-04-14 19:36:44 8 suiius II ПРУН Bowan
Race1885 2015-04-14 19:36:07 8 Юльчик star6546 Blackmagic
Race1884 2015-04-14 19:35:30 8 pesadilla miracle relax
Race1883 2015-04-14 19:34:58 8 truc zepistacho Ar PempO